sat.trackr.live / text

‹ back to catalog

STARLINK-32398

NORAD 61624 · 2024-191D

PAYLOAD ACTIVE UNKNOWN

§ Identity

Operator
Country
US
Launch date
2024-10-23
Launch site
AFETR
Launch vehicle
Mass (kg)
RCS (m²)

Purposes: comms

External: N2YO · Heavens-Above · Gunter

§ Orbital elements

Epoch: 2026-05-25T04:13:14.558016Z

Period
94.27 min
Inclination
43.0017°
Eccentricity
0.0001163
Mean motion
15.27577864 rev/d
Perigee alt
482.3 km
Apogee alt
483.9 km
Semi-major
6,861.2 km
B*
1.8877e-5
RAAN
82.5783°
Arg perigee
267.1588°
Mean anomaly
92.9130°
Rev number
8,923

§ Raw data

STARLINK-323981 61624U 24191D   26145.17586294  .00000257  00000+0  18877-4 0  99942 61624  43.0017  82.5783 0001163 267.1588  92.9130 15.27577864 89235

JSON: /api/v1/satellites/61624 · /tle

For live sub-satellite position, see the globe view (requires WebGL).

§ Visibility from observer

Set your observer location to see the next 7 days of passes ≥ 10°. The values pass through the URL so the page stays shareable.

No JS? Fill the form by hand. The geolocation button needs JavaScript.